Flag for U.S.A. Weather past 2 weeks in Kilgore, Texas, U.S.A.

Now
91 °F

Sunny.


Feels Like: 100 °F
Forecast: 75 / 92 °F
Wind: 7 mph from South

Location: Gregg County Airport

Current Time: Jul 5, 2015 at 9:01:03 PM

Latest Report: Jul 5, 2015 at 7:53 PM


Visibility: 10 mi

Pressure: 29.98 "Hg

Humidity: 56%

Dew point: 73 °F

Location of KilgoreLocation

Historic Weather in Kilgore — Graph

°F

Kilgore temperature yesterday

Maximum temperature yesterday: 94 °F (at 2:53 PM)
Minimum temperature yesterday: 78 °F (at 11:53 PM)
Average temperature yesterday: 84 °F

Past Weeks' High & Low Weather Summary

 TemperatureHumidityPressure
High96 °F (Jul 5, 4:53 PM)94% (Jun 21, 6:53 AM)30.15 "Hg (Jun 21, 6:53 AM)
Low71 °F (Jun 28, 4:53 AM)42% (Jun 28, 3:53 PM)29.88 "Hg (Jun 26, 8:53 PM)
Average83 °F73%30.00 "Hg
* Reported Jun 20 7:53 PM — Jul 5 7:53 PM, Kilgore, Weather by CustomWeather, © 2015

Note: Actual official high and low records may vary slightly from our data, if they occured in-between our weather recording intervals... More about our weather records

Advertising

Kilgore weather history for previous 24 hours

 ConditionsComfort  
Time TempWeatherWind HumidityBarometerVisibility
7:53 PM
Sun, Jul 5
91 °FSunny.7 mph56%29.98 "Hg10 mi
6:53 PM93 °FPassing clouds.10 mph54%29.95 "Hg10 mi
5:53 PM94 °FScattered clouds.10 mph52%29.93 "Hg10 mi
4:53 PM96 °FPassing clouds.9 mph47%29.95 "Hg10 mi
3:53 PM95 °FPassing clouds.10 mph49%29.96 "Hg10 mi
2:53 PM95 °FScattered clouds.9 mph51%29.98 "Hg10 mi
1:53 PM94 °FScattered clouds.9 mph54%30.01 "Hg10 mi
12:53 PM93 °FPartly sunny.12 mph56%30.04 "Hg10 mi
12:00 PM90 °FPartly sunny.13 mph61%30.07 "Hg10 mi
10:53 AM88 °FPartly sunny.10 mph65%30.04 "Hg10 mi
9:53 AM87 °FScattered clouds.13 mph65%30.04 "Hg10 mi
8:53 AM85 °FPartly sunny.12 mph72%30.03 "Hg10 mi
7:53 AM81 °FPartly sunny.8 mph82%30.03 "Hg10 mi
6:53 AM80 °FLow clouds.10 mph81%30.03 "Hg8 mi
5:53 AM79 °FLow clouds.7 mph84%30.02 "Hg10 mi
4:53 AM78 °FPassing clouds.7 mph84%30.01 "Hg10 mi
3:53 AM78 °FClear.7 mph84%29.99 "Hg10 mi
2:53 AM79 °FLow clouds.6 mph82%29.98 "Hg10 mi
1:53 AM78 °FClear.5 mph84%29.98 "Hg10 mi
12:53 AM78 °FClear.9 mph82%29.97 "Hg10 mi
11:53 PM
Sat, Jul 4
78 °FClear.9 mph82%29.97 "Hg10 mi
10:53 PM79 °FClear.5 mph77%29.97 "Hg10 mi
9:53 PM79 °FPassing clouds.8 mph77%29.98 "Hg10 mi
Weather by CustomWeather, © 2015

See weather overviewHow to use our weather pages